1305590432266,17.2083
1305590492266,17.2311
1305590552266,17.1698
1305590612266,17.2140
1305590672266,17.1937
1305590732266,17.1676
1305590792266,17.1667
1305590852266,17.1426
1305590912266,17.2097
1305590972266,17.1644
1305591032266,17.1871
1305591092266,17.1806
1305591152266,17.2200
1305591212266,17.1958
1305591272266,17.2082
1305591332266,17.2091
1305591392266,17.1490
1305591452266,17.1404
1305591512266,17.1651
1305591572266,17.1621
1305591632266,17.2014
1305591692266,17.1458
1305591752266,17.1615
1305591812266,17.1546
1305591872266,17.1330
1305591932266,17.1291
1305591992266,17.1228
1305592052266,17.1273
1305592112266,17.2102
1305592172266,17.1684
1305592232266,17.1751
1305592292266,17.1579
1305592352266,17.1721
1305592412266,17.1622
1305592472266,17.1400
1305592532266,17.1378
1305592592266,17.1424
1305592652266,17.1695
1305592712266,17.1150
1305592772266,17.2263
1305592832266,17.1686
1305592892266,17.1596
1305592952266,17.1860
1305593012266,17.1523
1305593072266,17.1976
1305593132266,17.1081
1305593192266,17.1298
1305593252266,17.1412
1305593312266,17.1697
1305593372266,17.1597
1305593432266,17.1821
1305593492266,17.1811
1305593552266,17.1385
1305593612266,17.1320
1305593672266,17.1570
1305593732266,17.1802
1305593792266,17.1512
1305593852266,17.1416
1305593912266,17.1787
1305593972266,17.1611
1305594032276,17.1477
1305594092276,17.1413
1305594152276,17.1660
1305594212276,17.1826
1305594272276,17.1916
1305594332276,17.1544
1305594392276,17.1494
1305594452276,17.2726
1305594512276,17.2136
1305594572276,17.2128
1305594632276,17.2660
1305594692276,17.2148
1305594752276,17.2430
1305594812276,17.1993
1305594872276,17.1943
1305594932276,17.1962
1305594992276,17.1420
1305595052276,17.1749
1305595112276,17.1774
1305595172276,17.1376
1305595232276,17.1841
1305595292276,17.1467
1305595352276,17.1529
1305595412276,17.1391
1305595472276,17.1445
1305595532276,17.1962
1305595592276,17.1748
1305595652276,17.1546
1305595712276,17.2659
1305595772276,17.2780
1305595832276,17.1968
1305595892276,17.2241
1305595952276,17.1851
1305596012276,17.1990
1305596072276,17.1684
1305596132276,17.2196
1305596192276,17.2343
1305596252276,17.1791
1305596312276,17.2238
1305596372276,17.2135
1305596432276,17.1747
1305596492276,17.2014
1305596552276,17.2535
1305596612276,17.2943
1305596672276,17.2714
1305596732276,17.2435
1305596792276,17.1831
1305596852276,17.2077
1305596912276,17.1960
1305596972276,17.1627
1305597032276,17.1888
1305597092276,17.1904
1305597152276,17.2112
1305597212276,17.1853
1305597272276,17.1937
1305597332276,17.1465
1305597392276,17.1809
1305597452276,17.1349
1305597512276,17.1791
1305597572276,17.1856
1305597632287,17.2117
1305597692287,17.2124
1305597752287,17.2110
1305597812287,17.2341
1305597872287,17.2187
1305597932287,17.2300
1305597992287,17.2509
1305598052287,17.2157
1305598112287,17.2411
1305598172287,17.2222
1305598232287,17.2547
1305598292287,17.2758
1305598352287,17.2597
1305598412287,17.3471
1305598472287,17.3513
1305598532287,17.3665
1305598592287,17.2943
1305598652287,17.3106
1305598712287,17.2946
1305598772287,17.2814
1305598832287,17.2558
1305598892287,17.2364
1305598952287,17.2726
1305599012287,17.2610
1305599072287,17.2616
1305599132287,17.2321
1305599192287,17.2201
1305599252287,17.2093
1305599312287,17.2385
1305599372287,17.2822
1305599432287,17.2061
1305599492287,17.2263
1305599552287,17.2173
1305599612287,17.2355
1305599672287,17.1961
1305599732287,17.2147
1305599792287,17.1911
1305599852287,17.2712
1305599912287,17.3378
1305599972287,17.3277
1305600032287,17.3352
1305600092287,17.2677
1305600152287,17.2940
1305600212287,17.2924
1305600272287,17.2754
1305600332287,17.2345
1305600392287,17.2281
1305600452287,17.2135
1305600512287,17.2603
1305600572287,17.2685
1305600632287,17.2057
1305600692287,17.2029
1305600752287,17.2091
1305600812287,17.2134
1305600872287,17.2061
1305600932287,17.2204
1305600992287,17.2253
1305601052287,17.2298
1305601112287,17.1858
1305601172287,17.2020
1305601232297,17.2396
1305601292297,17.1783
1305601352297,17.1699
1305601412297,17.1571
1305601472297,17.1421
1305601532297,17.2136
1305601592297,17.2430
1305601652297,17.2077
1305601712297,17.1709
1305601772297,17.1976
1305601832297,17.2133
1305601892297,17.2242
1305602432297,17.1960
1305602492297,17.1594
1305602552297,17.1167
1305602612297,17.0792
1305602672297,17.1236
1305602732297,17.1026
1305602792297,17.1451
1305602852297,17.1657
1305602912297,17.1367
1305602972297,17.1533
1305603032297,17.1856
1305603092297,17.1239
1305603152297,17.1261
1305603212297,17.1566
1305603272297,17.1530
1305603332297,17.1791
1305603392297,17.2182
1305603452297,17.1849
1305603512297,17.1867
1305603572297,17.1461
1305603632297,17.1405
1305603692297,17.1070
1305603752297,17.1178
1305603812297,17.1000
1305603872297,17.0858
1305603932297,17.0960
1305603992297,17.0775
1305604052297,17.1069
1305604112297,17.1222
1305604172297,17.1868
1305604232297,17.0887
1305604292297,17.1529
1305604352297,17.0661
1305604412297,17.0883
1305604472297,17.1109
1305604532297,17.1032
1305604592297,17.0887
1305604652297,17.1024
1305604712297,17.0942
1305604772297,17.0921
1305604832307,17.1175
1305604892307,17.0613
1305604952307,17.1075
1305605012307,17.1218
1305605072307,17.0965
1305605132307,17.0962
1305605192307,17.1059
1305605252307,17.0864
1305605312307,17.1050
1305605372307,17.0964
1305605432307,17.1146
1305605492307,17.1161
1305605552307,17.1171
1305605612307,17.1636
1305605672307,17.1587
1305605732307,17.1484
1305605792307,17.2251
1305605852307,17.1774
1305605912307,17.1714
1305605972307,17.1686
1305606032307,17.2386
1305606092307,17.2073
1305606152307,17.2155
1305606212307,17.1605
1305606272307,17.1653
1305606332307,17.1488
1305606392307,17.1746
1305606452307,17.1661
1305606512307,17.1428
1305606572307,17.1456
1305606632307,17.1861
1305606692307,17.1019
1305606752307,17.1999
1305606812307,17.1601
1305606872307,17.1684
1305606932307,17.2257
1305606992307,17.1357
1305607052307,17.1827
1305607112307,17.1959
1305607172307,17.1214
1305607232307,17.1655
1305607292307,17.1710
1305607352307,17.1061
1305607412307,17.2205
1305607472307,17.1624
1305607532307,17.1969
1305607592307,17.2212
1305607652307,17.2118
1305607712307,17.1740
1305607772307,17.1467
1305607832307,17.2104
1305607892307,17.1750
1305607952307,17.1793
1305608012307,17.1429
1305608072307,17.1833
1305608132307,17.1474
1305608192307,17.1601
1305608252307,17.1637
1305608312307,17.1303
1305608372307,17.1569
1305608432317,17.1052
1305608492317,17.1101
1305608552317,17.1340
1305608612317,17.1128
1305608672317,17.1588
1305608732317,17.2147
1305608792317,17.1618
1305608852317,17.1745
1305608912317,17.1835
1305608972317,17.1785
1305609032317,17.1611
1305609092317,17.2386
1305609152317,17.1805
1305609212317,17.1787
1305609272317,17.2035
1305609332317,17.2051
1305609392317,17.2374
1305609452317,17.1928
1305609512317,17.1869
1305609572317,17.2389
1305609632317,17.1689
1305609692317,17.2051
1305609752317,17.2190
1305609812317,17.2046
1305609872317,17.2255
1305609932317,17.1755
1305609992317,17.1665
1305610052317,17.2126
1305610112317,17.2145
1305610172317,17.2114
1305610232317,17.1744
1305610292317,17.1969
1305610352317,17.2212
1305610412317,17.1665
1305610472317,17.2064
1305610532317,17.1962
1305610592317,17.2008
1305610652317,17.1630
1305610712317,17.2092
1305610772317,17.2090
1305610832317,17.1983
1305610892317,17.1881
1305610952317,17.2068
1305611012317,17.2378
1305611072317,17.2115
1305611132317,17.2333
1305611192317,17.2053
1305611252317,17.1998
1305611312317,17.1441
1305611372317,17.1823
1305611432317,17.2138
1305611492317,17.1668
1305611552317,17.1448
1305611612317,17.1364
1305611672317,17.1346
1305611732317,17.1357
1305611792317,17.1365
1305611852317,17.2123
1305611912317,17.1834
1305611972317,17.1961
1305612032327,17.1447
1305612092326,17.1669
1305612152326,17.2014
1305612212326,17.1733
1305612272326,17.1834
1305612332326,17.1973
1305612392326,17.1993
1305612452326,17.1481
1305612512326,17.1793
1305612572326,17.1972
1305612632326,17.2074
1305612692326,17.1825
1305612752326,17.2374
1305612812326,17.1426
1305612872326,17.1646
1305612932326,17.2503
1305612992326,17.2329
1305613052326,17.2222
1305613112326,17.2216
1305613172327,17.2308
1305613232327,17.2550
1305613292327,17.1781
1305613352327,17.1903
1305613412327,17.2350
1305613472326,17.1995
1305613532326,17.2058
1305613592326,17.2049
1305613652326,17.1307
1305613712326,17.1736
1305613772326,17.2198
1305613832326,17.2224
1305613892326,17.1796
1305613952326,17.2028
1305614012326,17.2045
1305614072326,17.2044
1305614132326,17.1455
1305614192326,17.2034
1305614252326,17.1735
1305614312326,17.1791
1305614372326,17.2028
1305614432326,17.1500
1305614492326,17.1791
1305614552327,17.1679
1305614612327,17.1708
1305614672327,17.1409
1305614732327,17.1243
1305614792326,17.2128
1305614852326,17.1094
1305614912326,17.2042
1305614972326,17.1364
1305615032326,17.1458
1305615092326,17.0988
1305615152326,17.1608
1305615212326,17.1587
1305615272326,17.1753
1305615332326,17.1392
1305615392326,17.1324
1305615452326,17.0756
1305615512326,17.1548
1305615572326,17.1611
1305615632336,17.1531
1305615692336,17.1586
1305615752336,17.1646
1305615812336,17.1700
1305615872336,17.1568
1305615932336,17.1620
1305615992336,17.1597
1305616052336,17.1216
1305616112336,17.1895
1305616172336,17.1600
1305616232336,17.1090
1305616292336,17.1497
1305616352336,17.1314
1305616412336,17.1189
1305616472336,17.1203
1305616532336,17.1018
1305616592336,17.1067
1305616652336,17.1359
1305616712336,17.1201
1305616772336,17.0881
1305616832336,17.1333
1305616892336,17.1034
1305616952336,17.1191
1305617012336,17.1075
1305617072336,17.1249
1305617132336,17.1203
1305617192336,17.1022
1305617252336,17.1110
1305617312336,17.1403
1305617372336,17.1646
1305617432336,17.0961
1305617492336,17.1437
1305617552336,17.1484
1305617612336,17.1052
1305617672336,17.1092
1305617732336,17.1126
1305617792336,17.1210
1305617852336,17.1081
1305617912336,17.1285
1305617972336,17.0845
1305618032336,17.1293
1305618092336,17.1063
1305618152336,17.0975
1305618212336,17.1105
1305618272336,17.1708
1305618332336,17.1735
1305618392336,17.1615
1305618452336,17.1738
1305618512336,17.1768
1305618572336,17.1333
1305618632336,17.1866
1305618692336,17.1013
1305618752336,17.1382
1305618812336,17.1224
1305618872336,17.1885
1305618932336,17.1668
1305618992336,17.1381
1305619052336,17.1884
1305619112336,17.1885
1305619172336,17.1660
1305619232346,17.1739
1305619292346,17.1548
1305619352346,17.1344
1305619412346,17.1210
1305619472346,17.1678
1305619532346,17.1383
1305619592346,17.1104
1305619652346,17.1118
1305619712346,17.0826
1305619772346,17.0990
1305619832346,17.0997
1305619892346,17.1146
1305619952346,17.0699
1305620012346,17.0876
1305620072346,17.1228
1305620132346,17.0880
1305620192346,17.0753
1305620252346,17.1004
1305620312346,17.1100
1305620372346,17.1004
1305620432346,17.1214
1305620492346,17.0676
1305620552346,17.1120
1305620612346,17.0803
1305620672346,17.1192
1305620732346,17.0827
1305620792346,17.0890
1305620852346,17.0738
1305620912346,17.1094
1305620972346,17.0173
1305621032346,17.0896
1305621092346,17.0797
1305621152346,17.1120
1305621212346,17.1289
1305621272346,17.1479
1305621332346,17.0623
1305621392346,17.0600
1305621452346,17.1088
1305621512346,17.1206
1305621572346,17.0776
1305621632346,17.0913
1305621692346,17.1227
1305621752346,17.1309
1305621812346,17.1505
1305621872346,17.1189
1305621932346,17.1261
1305621992346,17.1275
1305622052346,17.1382
1305622112346,17.2041
1305622172346,17.1242
1305622232346,17.1917
1305622292346,17.1513
1305622352346,17.1574
1305622412346,17.1541
1305622472346,17.1619
1305622532346,17.1561
1305622592346,17.1108
1305622652346,17.0733
1305622712346,17.1571
1305622772346,17.1700
1305622832356,17.1324
1305622892356,17.1356
1305622952356,17.1367
1305623012356,17.0965
1305623072356,17.1833
1305623132356,17.1301
1305623192356,17.1785
1305623252356,17.1509
1305623312356,17.1601
1305623372356,17.1767
1305623432356,17.1724
1305623492356,17.1560
1305623552356,17.1187
1305623612356,17.1750
1305623672356,17.1398
1305623732356,17.1614
1305623792356,17.1295
1305623852356,17.1401
1305623912356,17.1566
1305623972356,17.1245
1305624032356,17.1286
1305624092356,17.1237
1305624152356,17.1099
1305624212356,17.1082
1305624272356,17.1564
1305624332356,17.1402
1305624392356,17.1135
1305624452356,17.1015
1305624512356,17.1536
1305624572356,17.1477
1305624632356,17.1567
1305624692356,17.1607
1305624752356,17.1617
1305624812356,17.1991
1305624872356,17.1463
1305624932356,17.1255
1305624992356,17.1551
1305625052356,17.1096
1305625112356,17.1876
1305625172356,17.1862
1305625232356,17.1537
1305625292356,17.1770
1305625352356,17.1419
1305625412356,17.1596
1305625472356,17.1591
1305625532356,17.1008
1305625592356,17.1314
1305625652356,17.1289
1305625712356,17.1446
1305625772356,17.1241
1305625832356,17.0707
1305625892356,17.1213
1305625952356,17.1257
1305626012356,17.1141
1305626072356,17.0744
1305626132356,17.0959
1305626192356,17.1340
1305626252356,17.1014
1305626312356,17.1189
1305626372356,17.1296
1305626432366,17.1098
1305626492366,17.0955
1305626552366,17.1347
1305626612366,17.0946
1305626672366,17.1190
1305626732366,17.1645
1305626792366,17.1369
1305626852366,17.1278
1305626912366,17.1182
1305626972366,17.1333
1305627032366,17.1193
1305627092366,17.0769
1305627152366,17.1431
1305627212366,17.0960
1305627272366,17.0840
1305627332366,17.1052
1305627392366,17.0275
1305627452366,17.1178
1305627512366,17.1238
1305627572366,17.1243
1305627632366,17.0999
1305627692366,17.1061
1305627752366,17.1724
1305627812366,17.1219
1305627872366,17.1352
1305627932366,17.1229
1305627992366,17.1557
1305628052366,17.2013
1305628112366,17.1124
1305628172366,17.1540
1305628232366,17.2237
1305628292366,17.1513
1305628352366,17.1836
1305628412366,17.1238
1305628472366,17.1092
1305628532366,17.1155
1305628592366,17.1940
1305628652366,17.1246
1305628712366,17.1576
1305628772366,17.1067
1305628832366,17.1333
1305628892366,17.1748
1305628952366,17.1499
1305629012366,17.0858
1305629072366,17.1492
1305629132366,17.1249
1305629192366,17.1121
1305629252366,17.1170
1305629312366,17.0964
1305629372366,17.0797
1305629432366,17.0928
1305629492366,17.1376
1305629552366,17.1086
1305629612366,17.0871
1305629672366,17.1196
1305629732366,17.1019
1305629792366,17.1561
1305629852366,17.0826
1305629912366,17.0868
1305629972366,17.0731
1305630032375,17.0628
1305630092375,17.0952
1305630152375,17.0811
1305630212375,17.0987
1305630272375,17.0656
1305630332375,17.0617
1305630392375,17.0735
1305630452375,17.0827
1305630512375,17.1241
1305630572375,17.1304
1305630632375,17.1374
1305630692375,17.1324
1305630752375,17.1386
1305630812375,17.1564
1305630872375,17.1031
1305630932375,17.1519
1305630992375,17.1227
1305631052375,17.1601
1305631112375,17.1256
1305631172375,17.1634
1305631232375,17.1688
1305631292375,17.1272
1305631352375,17.1588
1305631412375,17.1166
1305631472375,17.1100
1305631532375,17.1225
1305631592375,17.1702
1305631652375,17.1118
1305631712375,17.1839
1305631772375,17.1742
1305631832375,17.1599
1305631892375,17.2061
1305631952375,17.2027
1305632012375,17.1605
1305632072375,17.2138
1305632132375,17.1928
1305632192375,17.1832
1305632252375,17.1908
1305632312375,17.1837
1305632372375,17.2057
1305632432375,17.1934
1305632492375,17.1515
1305632552375,17.1535
1305632612375,17.1643
1305632672375,17.1772
1305632732375,17.1674
1305632792375,17.1882
1305632852375,17.1312
1305632912375,17.1578
1305632972375,17.1272
1305633032375,17.1724
1305633092375,17.1801
1305633152375,17.1453
1305633212375,17.1424
1305633272375,17.1711
1305633332375,17.0852
1305633392375,17.1566
1305633452375,17.0742
1305633512375,17.1099
1305633572375,17.1330
1305633632385,17.0772
1305633692385,17.1238
1305633752385,17.1269
1305633812385,17.1361
1305633872385,17.1275
1305633932385,17.1535
1305633992385,17.1331
1305634052385,17.1372
1305634112385,17.1294
1305634172385,17.1109
1305634232385,17.1310
1305634292385,17.0994
1305634352385,17.1020
1305634412385,17.1018
1305634472385,17.0843
1305634532385,17.0883
1305634592385,17.1201
1305634652385,17.0941
1305634712385,17.0881
1305634772385,17.0617
1305634832385,17.1320
1305634892385,17.1100
1305634952385,17.0912
1305635012385,17.0559
1305635072385,17.0677
1305635132385,17.0815
1305635192385,17.0628
1305635252385,17.0897
1305635312385,17.0903
1305635372385,17.1217
1305635432385,17.1234
1305635492385,17.1035
1305635552385,17.0804
1305635612385,17.1071
1305635672385,17.1036
1305635732385,17.1038
1305635792385,17.0892
1305635852385,17.0731
1305635912385,17.1225
1305635972385,17.0923
1305636032385,17.1536
1305636092385,17.1289
1305636152385,17.0918
1305636212385,17.1133
1305636272385,17.1073
1305636332385,17.1420
1305636392385,17.1532
1305636452385,17.1764
1305636512385,17.1843
1305636572385,17.2032
1305636632385,17.1947
1305636692385,17.1902
1305636752385,17.2102
1305636812385,17.2481
1305636872385,17.1972
1305636932385,17.1841
1305636992385,17.1729
1305637052385,17.1777
1305637112385,17.1719
1305637172385,17.1721
1305637232395,17.1951
1305637292395,17.1716
1305637352395,17.2020
1305637412395,17.2048
1305637472395,17.1458
1305637532395,17.1759
1305637592395,17.1823
1305637652395,17.2029
1305637712395,17.1974
1305637772395,17.1499
1305637832395,17.1856
1305637892395,17.1936
1305637952395,17.1229
1305638012395,17.1867
1305638072395,17.2092
1305638132395,17.2176
1305638192395,17.1570
1305638252395,17.1716
1305638312395,17.1744
1305638372395,17.1533
1305638432395,17.1780
1305638492395,17.2429
1305638552395,17.1660
1305638612395,17.1977
1305638672395,17.1663
1305638732395,17.1638
1305638792395,17.2061
1305638852395,17.2012
1305638912395,17.2067
1305638972395,17.1837
1305639032395,17.1624
1305639092395,17.1733
1305639152395,17.1833
1305639212395,17.1838
1305639272395,17.1893
1305639332395,17.2331
1305639392395,17.1860
1305639452395,17.1894
1305639512395,17.1929
1305639572395,17.1342
1305639632395,17.2045
1305639692395,17.1591
1305639752395,17.1482
1305639812395,17.1070
1305639872395,17.1130
1305639932395,17.1464
1305639992395,17.1375
1305640052395,17.1679
1305640112395,17.1706
1305640172395,17.1557
1305640232395,17.1550
1305640292395,17.1531
1305640352395,17.1637
1305640412395,17.1451
1305640472395,17.1571
1305640532395,17.1568
1305640592395,17.1774
1305640652395,17.2081
1305640712395,17.1745
1305640772395,17.1412
1305640832404,17.2204
1305640892404,17.1959
1305640952404,17.1939
1305641012404,17.1738
1305641072404,17.1826
1305641132404,17.1770
1305641192404,17.1925
1305641252404,17.2137
1305641312404,17.1947
1305641372404,17.2185
1305641432404,17.2550
1305641492404,17.1565
1305641552404,17.1941
1305641612404,17.1782
1305641672404,17.2097
1305641732404,17.1896
1305641792404,17.1339
1305641852404,17.1675
1305641912404,17.1993
1305641972404,17.2077
1305642032404,17.1877
1305642092404,17.1733
1305642152404,17.2210
1305642212404,17.2389
1305642272404,17.1472
1305642332404,17.1913
1305642392404,17.1803
1305642452404,17.1956
1305642512404,17.1850
1305642572404,17.1563
1305642632404,17.1927
1305642692404,17.1693
1305642752404,17.1414
1305642812404,17.2422
1305642872404,17.1865
1305642932404,17.1788
1305642992404,17.1803
1305643052404,17.1677
1305643112404,17.1919
1305643172404,17.1492
1305643232404,17.1514
1305643292404,17.1441
1305643352404,17.1452
1305643412404,17.1639
1305643472404,17.1580
1305643532404,17.1276
1305643592404,17.1190
1305643652404,17.1744
1305643712404,17.1269
1305643772404,17.1357
1305643832404,17.1490
1305643892404,17.1730
1305643952404,17.1572
1305644012404,17.2053
1305644072404,17.1556
1305644132404,17.1020
1305644192404,17.1500
1305644252404,17.1375
1305644312404,17.1283
1305644372404,17.1459
1305644432414,17.1645
1305644492414,17.1296
1305644552414,17.1410
1305644612414,17.1253
1305644672414,17.1522
1305644732414,17.1327
1305644792414,17.1586
1305644852414,17.1487
1305644912414,17.1577
1305644972414,17.0833
1305645032414,17.1569
1305645092414,17.1195
1305645152414,17.1400
1305645212414,17.1242
1305645272414,17.1513
1305645332414,17.1680
1305645392414,17.2304
1305645452414,17.2784
1305645512414,17.2162
1305645572414,17.2423
1305645632414,17.2044
1305645692414,17.2281
1305645752414,17.2326
1305645812414,17.2196
1305645872414,17.2214
1305645932414,17.2160
1305645992414,17.1729
1305646052414,17.1785
1305646112414,17.2272
1305646172414,17.1504
1305646232414,17.1819
1305646292414,17.1837
1305646352414,17.1250
1305646412414,17.1172
1305646472414,17.1432
1305646532414,17.1425
1305646592414,17.2140
1305646652414,17.2003
1305646712414,17.1910
1305646772414,17.1914
1305646832414,17.1562
1305646892414,17.1977
1305646952414,17.1360
1305647012414,17.1698
1305647072414,17.1808
1305647132414,17.1767
1305647192414,17.1617
1305647252414,17.1510
1305647312414,17.1488
1305647372414,17.1148
1305647432414,17.1264
1305647492414,17.1622
1305647552414,17.0881
1305647612414,17.1377
1305647672414,17.1316
1305647732414,17.1481
1305647792414,17.1189
1305647852414,17.1148
1305647912414,17.1374
1305647972414,17.1705
1305648032423,17.1241
1305648092423,17.1215
1305648152423,17.1744
1305648212423,17.1083
1305648272423,17.1999
1305648332423,17.2143
1305648392423,17.2031
1305648452423,17.1866
1305648512423,17.2531
1305648572423,17.2272
1305648632423,17.2279
1305648692423,17.2214
1305648752423,17.2302
1305648812423,17.2127
1305648872423,17.1974
1305648932423,17.2282
1305648992423,17.2364
1305649052423,17.2729
1305649112423,17.2635
1305649172423,17.2202
1305649232423,17.2380
1305649292423,17.2085
1305649352423,17.2551
1305649412423,17.1851
1305649472423,17.2326
1305649532423,17.2196
1305649592423,17.2304
1305649652423,17.1808
1305649712423,17.2438
1305649772423,17.2385
1305649832423,17.1567
1305649892423,17.1949
1305649952423,17.2031
1305650012423,17.1678
1305650072423,17.1850
1305650132423,17.1808
1305650192423,17.1602
1305650252423,17.1999
1305650312423,17.1584
1305650372423,17.1901
1305650432423,17.1803
1305650492423,17.1673
1305650552423,17.1596
1305650612423,17.0835
1305650672423,17.1444
1305650732423,17.1437
1305650792423,17.1802
1305650852423,17.1417
1305650912423,17.1748
1305650972423,17.1655
1305651032423,17.1569
1305651092423,17.1495
1305651152423,17.1160
1305651212423,17.1151
1305651272423,17.1411
1305651332423,17.0905
1305651392423,17.0882
1305651452423,17.0722
1305651512423,17.0726
1305651572423,17.1364
1305651632433,17.1502
1305651692433,17.0481
1305651752433,17.1164
1305651812433,17.1394
1305651872433,17.1060
1305651932433,17.0759
1305651992433,17.1951
1305652052433,17.1333
1305652112433,17.1740
1305652172433,17.1665
1305652232433,17.1265
1305652292433,17.1987
1305652352433,17.1740
1305652412433,17.1795
1305652472433,17.1295
1305652532433,17.1677
1305652592433,17.1552
1305652652433,17.1854
1305652712433,17.1325
1305652772433,17.1902
1305652832433,17.1592
1305652892433,17.1207
1305652952433,17.1361
1305653012433,17.1029
1305653072433,17.1338
1305653132433,17.0735
1305653192433,17.0897
1305653252433,17.0683
1305653312433,17.0857
1305653372433,17.1251
1305653432433,17.0845
1305653492433,17.1186
1305653552433,17.0876
1305653612433,17.1099
1305653672433,17.1060
1305653732433,17.1105
1305653792433,17.0877
1305653852433,17.0811
1305653912433,17.1275
1305653972433,17.1167
1305654032433,17.1125
1305654092433,17.1222
1305654152433,17.1145
1305654212433,17.1011
1305654272433,17.1190
1305654332433,17.0824
1305654392433,17.1505
1305654452433,17.0581
1305654512433,17.1064
1305654572433,17.1151
1305654632433,17.0749
1305654692433,17.1077
1305654752433,17.1214
1305654812433,17.0897
1305654872433,17.1215
1305654932433,17.1066
1305654992433,17.1316
1305655052433,17.1647
1305655112433,17.1108
1305655172433,17.1407
1305655232443,17.1301
1305655292443,17.0956
1305655352443,17.0959
1305655412443,17.1620
1305655472443,17.1456
1305655532443,17.1543
1305655592443,17.1379
1305655652443,17.1442
1305655712443,17.1112
1305655772443,17.1430
1305655832443,17.1548
1305655892443,17.0540
1305655952443,17.1173
1305656012443,17.1286
1305656072443,17.1086
1305656132443,17.1255
1305656192443,17.0936
1305656252443,17.0672